www.pogodaiklimat.ru

Погода и климат >> Архив погоды >> Украина >> Новоднестровск


ПОГОДА в Новоднестровске

  • Прогноз погоды в Новоднестровске
  • Монитор погоды в Новоднестровске
  • Климат города

АРХИВ ПОГОДЫ в Новоднестровске

Время (UTC), дата Ветер
(напр.,м/с)
 
Видим.   Явления Облачность Т
(С)
Тd
(С)
f
(%)
Тe
(С)
Тes
(С)
Комфортность P
(гПа)
Po
(гПа)
Тmin
(С)
Tmax
(С)
R
(мм)
R24
(мм)
S
(см)
15 17.11 ЮВ 2 н/о 9 баллов +3.9 +0.8 80 +1 +1 1023.2 993.3
18 17.11 ЮВ 2 н/о 9 баллов +3.3 +0.4 81 0 0 1023.2 993.3
21 17.11 ЮВ 1 н/о 9 баллов +3.0 +0.6 84 +1 +1 1023.3 993.3
00 18.11 ЮВ 1 н/о дымка 10 баллов +2.9 +1.6 91 +1 1022.0 992.0
03 18.11 ЮВ 1 н/о дымка 10 баллов +2.8 +1.8 93 +1 1020.6 990.7
06 18.11 штиль 0 4000 м дымка 10/10 800 м
[Sc]
+2.8 +1.8 93 +2 +2 1020.1 990.1 +2.7
09 18.11 ЮВ 1 н/о 9 баллов +4.9 +2.4 84 +4 +4 1019.0 989.3
12 18.11 ЮВ 1 10 км {ливн. осадки} 10/10 660 м
[Sc]
+4.4 +1.6 82 +3 +3 1017.2 987.5 0.0
15 18.11 ЮВ 1 н/о слабый ливневой дождь н/о +4.2 +2.2 87 +3 1016.4 986.7
18 18.11 штиль 0 н/о слабый ливневой дождь н/о +4.0 +2.8 92 +3 1014.9 985.3 1.0
21 18.11 Ю 1 н/о слабый ливневой дождь н/о +4.0 +3.0 93 +2 1013.6 984.0
00 19.11 ЮЗ 1 4000 м слабый ливневой дождь 10/10 630 м
[Cb cap]
+4.0 +3.0 93 +2 +2 1012.4 982.8 0.9
03 19.11 З 1 н/о слабый ливневой дождь н/о +3.9 +3.2 95 +2 1010.8 981.3
06 19.11 З 1 н/о дымка 7 баллов +4.0 +3.0 93 +2 1010.8 981.3 3.0
09 19.11 СЗ 2 н/о дымка 10 баллов +4.0 +2.8 92 +1 1010.8 981.3
12 19.11 СЗ 2 10 км {ливн. осадки} 9/8 750 м
[Cb cap Ac trans]
+4.3 +1.3 81 +2 +2 1010.8 981.2 0.0
15 19.11 ЮЗ 2 н/о 7 баллов +3.0 +0.6 84 0 0 1010.9 981.3
18 19.11 ЮЗ 1 н/о дымка ясно +1.3 +0.1 92 -1 1012.5 982.7 0.0
21 19.11 Ю 1 н/о дымка ясно 0.0 -0.3 98 -2 1012.7 982.7
00 20.11 штиль 0 н/о дымка ясно -1.3 -1.6 98 -3 1011.4 981.3
03 20.11 Ю 1 н/о дымка ясно -2.6 -2.9 98 -5 1011.5 981.3
06 20.11 Ю 1 н/о туман н/о -2.7 -2.8 99 -5 1011.6 981.3
09 20.11 СВ 1 н/о туман н/о -1.2 -1.2 100 -4 1011.4 981.3
12 20.11 штиль 0 н/о туман н/о +1.9 +1.9 100 +1 1011.0 981.3
15 20.11 З 1 н/о в посл. час туман н/о +1.0 +0.4 96 -1 1012.6 982.7
18 20.11 СЗ 3 н/о 2 балла +1.8 -1.3 80 -2 1012.5 982.7
21 20.11 З 4 н/о ясно +1.6 -2.2 76 -3 -3 1013.9 984.0
00 21.11 З 3 н/о 3 балла +0.9 -3.2 74 -3 -3 1013.9 984.0
03 21.11 З 2 н/о ясно +0.7 -4.1 70 -3 -3 1012.6 982.7
06 21.11 З 2 н/о слабый ливневой дождь со снегом н/о -0.1 -4.0 75 -4 1014.0 984.0 0.0
09 21.11 З 2 н/о слабый ливневой дождь со снегом н/о +0.6 -0.8 90 -3 1014.0 984.0
12 21.11 СЗ 2 10 км {ливн. осадки} 9/8 800 м
[Sc Ac trans]
+1.7 -0.8 83 -2 -1 1014.1 984.1 2.0
15 21.11 СЗ 1 н/о 7 баллов +1.1 -2.7 76 -1 -1 1015.2 985.3
18 21.11 З 1 н/о 6 баллов -0.5 -3.5 80 -2 -2 1015.4 985.3 2.0
21 21.11 З 1 н/о 6 баллов -0.7 -3.5 81 -3 -3 1015.4 985.3
00 22.11 З 1 н/о 5 баллов -1.1 -3.9 81 -3 -3 1015.5 985.3
03 22.11 ЮЗ 1 н/о дымка 9 баллов -1.4 -2.8 90 -4 1015.5 985.3
06 22.11 штиль 0 н/о слабый ливневой снег н/о -1.2 -2.2 93 -2 1016.9 986.7 0.0
09 22.11 ЮЗ 2 н/о слабый ливневой дождь со снегом н/о 0.0 -1.4 90 -4 1016.8 986.7
12 22.11 СВ 2 10 км слабый ливневой дождь со снегом 10/10 700 м
[Cb cap]
+0.5 -2.1 83 -3 -3 1017.0 986.8 0.3
15 22.11 ЮЗ 1 н/о 5 баллов 0.0 -2.5 83 -2 1018.2 988.0
18 22.11 штиль 0 н/о 5 баллов -1.4 -3.4 86 -3 1019.6 989.3 0.3
21 22.11 штиль 0 н/о дымка 5 баллов -2.2 -3.5 91 -3 1019.7 989.3
00 23.11 штиль 0 н/о дымка 2 балла -5.1 -5.8 95 -6 1021.5 990.7
03 23.11 штиль 0 н/о дымка ясно -5.3 -6.0 95 -6 1021.5 990.7
06 23.11 штиль 0 н/о переохл. туман н/о -5.3 -5.3 100 -6 1022.9 992.0
09 23.11 ЮВ 2 н/о дымка 7 баллов -2.3 -2.8 96 -6 1023.9 993.3
12 23.11 Ю 2 н/о дымка 9 баллов +1.3 -0.9 85 -2 1022.1 992.0
15 23.11 ЮВ 2 н/о дымка 5 баллов +0.7 -1.4 86 -3 1022.2 992.0
18 23.11 ЮВ 1 н/о дымка 5 баллов -0.1 -1.8 88 -2 1022.3 992.0
21 23.11 Ю 1 н/о дымка ясно -1.7 -3.1 90 -4 1022.5 992.0
00 24.11 ЮВ 1 н/о дымка ясно -2.6 -3.1 96 -5 1022.6 992.0
03 24.11 ЮВ 1 н/о дымка ясно -3.7 -4.2 96 -6 1022.7 992.0
06 24.11 ЮВ 1 н/о дымка 9 баллов -3.4 -4.2 94 -6 1022.7 992.0
09 24.11 ЮВ 2 н/о дымка 9 баллов -0.6 -2.6 86 -4 1023.7 993.3
12 24.11 Ю 4 н/о дымка 10 баллов +1.1 -0.1 92 -4 1022.2 992.0

 

Местоположение метеостанции Новоднестровск (Черновицкая область, Украина): широта 48.57 долгота 27.45 высота над уровнем моря 241 м.

В архиве по умолчанию представлена погода в Новоднестровске за последнюю неделю. Архивные данные за месяц целиком и за предыдущие месяцы, начиная с января 2011 года, Вы можете получить, выбрав интересующий диапазон дат из раскрывающегося списка и нажав кнопку "Ввод!".

Внимание! Время в таблицах - всемирное. Для получения местного времени необходимо прибавить поправку, которая в Новоднестровске равна 2 ч.

Смотрите также архив погоды в соседних городах и на ближайших метеорологических станциях:

Погода в Могилев-Подольском (Винницкая область, Украина) (28 км)
Погода в Новой Ушице (Хмельницкая область, Украина) (34 км)
Погода в Бричанах (Молдова) (37 км)
Погода в Каменец-Подольском (Хмельницкая область, Украина) (58 км)
Погода в Жмеринке (Винницкая область, Украина) (72 км)
Погода в Сороках (Молдова) (75 км)
Погода в Darabani (Румыния) (76 км)
Погода в Stanca Stefanesti (Румыния) (84 км)
Погода в Хмельнике (Винницкая область, Украина) (86 км)
Погода в Бельцах (Молдова) (95 км)

Пояснения к столбцам:

Ветер - указаны скорость ветра в м/с - средняя за 10 мин, порывы в срок и между сроками (в фигурных скобках) и направление, откуда дует ветер: С - северный, СВ - северо-восточный, В - восточный, ЮВ - юго-восточный, Ю - южный, ЮЗ - юго-западный, З - западный, СЗ - северо-западный.
Видимость - горизонтальная дальность видимости в метрах или километрах. При видимости от 1 до 10 км при отсутствии осадков обычно наблюдается дымка, при ухудшении видимости до 1 км и менее - туман. В сухую погоду видимость может ухудшаться дымом, пылью или мглою.
Явления - указаны атмосферные явления, наблюдавшиеся в срок или в последний час перед сроком; фигурными скобками обозначены явления, наблюдавшиеся между сроками (за 1-3 часа до срока); квадратными скобками обозначены град или гололедные отложения с указанием их диаметра в мм.
Облачность - указаны через наклонную черту общая и нижняя облачность в баллах и высота нижней границы облаков в метрах; квадратными скобками обозначены формы облаков: Ci - перистые, Cs - перисто-слоистые, Cc - перисто-кучевые, Ac - высококучевые, As - высокослоистые, Sc - слоисто-кучевые, Ns - слоисто-дождевые, Cu - кучевые, Cb - кучево-дождевые. Подробнее классификацию облаков см. в Атласе облаков (PDF).
T - Температура воздуха - температура, измеренная на высоте 2 м над землей.
Td - Температура точки росы - температура, при понижении до которой содержащийся в воздухе водяной пар достигнет насыщения.
f - Относительная влажность воздуха - влажноcть воздуха, измеренная на высоте 2 м над землей.
Te - Эффективная температура - температура, которую ощущает одетый по сезону человек в тени. Характеристика душности погоды. При расчете учитывается влияние влажности воздуха и скорости ветра на теплоощущения человека.
Tes - Эффективная температура на солнце - температура, которую ощущает человек, с поправкой на солнечный нагрев. Характеристика знойности погоды. Зависит от высоты солнца над горизонтом, облачности и скорости ветра. Ночью, в пасмурную погоду, а также при ветре 12 м/с и более поправка равна нулю.
P - Атмосферное давление - приведенное к уровню моря атмосферное давление.
Po - Атмосферное давление - измеренное на уровне метеостанции атмосферное давление.
Tmin - Минимальная температура - минимум температуры воздуха на высоте 2 м над землей.
Tmax - Максимальная температура - максимум температуры воздуха на высоте 2 м над землей.
R - Количество осадков - Количество выпавших осадков за период времени, мм. При наведении курсора мыши на число - период времени, за который выпало указанное количество осадков.
R24 - Количество осадков - Количество выпавших осадков за 24 часа, мм.
S - Снежный покров - Высота снежного покрова, см. При наведении курсора мыши на число - состояние снежного покрова и степень покрытия местности в баллах.